User: anonymous   Login
Location: South Tamworth Observatory
(43.8246°N, 71.3026°W)
Time: 04:58:58
(UTC-05:00)
Language:

Cosmos 2208 Rocket - Orbit

View from above orbital plane
View from above orbital plane
View from above satellite
View from above satellite

Ground track
Ground track

The orbit data is extracted from the following two-line orbital elements,

1 22081U 92053B   16344.78509114  .00000027  00000-0  18927-4 0  9995
2 22081  74.0456  63.5370 0034770  78.5959 281.9095 14.33356673271701
Epoch (UTC): 09 December 2016 18:50:31
Eccentricity: 0.0034770
inclination: 74.0456°
perigee height: 755 km
apogee height: 805 km
right ascension of ascending node: 63.5370°
argument of perigee: 78.5959°
revolutions per day: 14.33356673
mean anomaly at epoch: 281.9095°
orbit number at epoch: 27170

The dashed part of the orbit path shows where the satellite is in the earth's shadow,  

DLR